Home > Weather > Rainy River > Past weeks

Flag for Canada Past Weather in Rainy River, Ontario, Canada — Yesterday and Last 2 Weeks

Now
47 °F

Clear.


Feels Like: 46 °F
Forecast: 49 / 76 °F
Wind: 3 mph from Southwest

Location: Baudette International Airport

Current Time: May 30, 2016 at 3:58:56 AM

Latest Report: May 30, 2016 at 2:53 AM


Visibility: 10 mi

Pressure: 29.93 "Hg

Humidity: 93%

Dew Point: 45 °F

Location of Rainy RiverLocation

Past Weather in Rainy River — Graph

°F

Rainy River Temperature Yesterday

Maximum temperature yesterday: 67 °F (at 5:53 PM)
Minimum temperature yesterday: 52 °F (at 11:53 PM)
Average temperature yesterday: 59 °F

High & Low Weather Summary for the Past Weeks

 TemperatureHumidityPressure
High81 °F (May 22, 2:53 PM)97% (May 16, 1:02 AM)30.39 "Hg (May 16, 1:02 AM)
Low29 °F (May 17, 4:53 AM)22% (May 19, 3:53 PM)29.56 "Hg (May 23, 9:53 AM)
Average59 °F64%29.94 "Hg
* Reported May 15 1:53 AM — May 30 1:53 AM, Rainy River, Weather by CustomWeather, © 2016

Note: Actual official high and low records may vary slightly from our data, if they occured in-between our weather recording intervals... More about our weather records

Advertising

Rainy River Weather History for the Previous 24 Hours

Scroll right to see more
 ConditionsComfort  
Time TempWeatherWind HumidityBarometerVisibility
1:53 AM
Mon, May 30
48 °FFog.5 mph93%29.93 "Hg5 mi
12:53 AM49 °FClear.3 mph97%29.92 "Hg10 mi
11:53 PM
Sun, May 29
52 °FClear.No wind86%29.92 "Hg10 mi
10:53 PM53 °FClear.3 mph89%29.92 "Hg10 mi
9:53 PM58 °FSunny.3 mph75%29.91 "Hg10 mi
8:53 PM63 °FScattered clouds.6 mph68%29.90 "Hg10 mi
7:53 PM66 °FPassing clouds.6 mph65%29.88 "Hg10 mi
6:53 PM67 °FScattered clouds.12 mph63%29.88 "Hg10 mi
5:53 PM67 °FScattered clouds.12 mph63%29.88 "Hg10 mi
3:53 PM66 °FMostly cloudy.16 mph65%29.89 "Hg10 mi
3:03 PM65 °FBroken clouds.10 mph73%29.89 "Hg10 mi
2:53 PM64 °FMostly cloudy.6 mph73%29.90 "Hg10 mi
1:53 PM59 °FOvercast.13 mph84%29.91 "Hg10 mi
12:53 PM59 °FOvercast.10 mph84%29.90 "Hg10 mi
11:53 AM58 °FOvercast.12 mph87%29.89 "Hg10 mi
11:02 AM57 °FMostly cloudy.15 mph87%29.87 "Hg10 mi
10:53 AM59 °FMore clouds than sun.12 mph84%29.88 "Hg10 mi
9:53 AM57 °FOvercast.12 mph90%29.88 "Hg10 mi
8:53 AM56 °FLight rain. Overcast.10 mph90%29.87 "Hg10 mi
7:53 AM55 °FLight rain. Mostly cloudy.15 mph93%29.86 "Hg10 mi
6:53 AM55 °FLight rain. Mostly cloudy.12 mph93%29.85 "Hg10 mi
5:53 AM54 °FMostly cloudy.10 mph97%29.84 "Hg10 mi
4:53 AM54 °FLow clouds.8 mph97%29.83 "Hg10 mi
3:53 AM55 °FLight rain. Fog.9 mph96%29.83 "Hg3 mi
Weather by CustomWeather, © 2016

See weather overviewHow to use our weather pages